{"data":{"norad_id":68636,"intl_designator":"2026-075A","name":"QIANFAN-109","alt_names":[],"object_type":"PAYLOAD","status":"ACTIVE","operator":null,"country":"PRC","launch_date":"2026-04-07","launch_site_code":"WSC","launch_vehicle":null,"mission":null,"orbit_class":"UNKNOWN","rcs_meters":null,"size_class":null,"mass_kg":null,"dimensions":null,"purposes":[],"wikipedia_slug":null,"has_3d_model":false,"image_url":null,"decayed_at":null,"tle_current":{"epoch":"2026-09-20T03:57:27.868032Z","epoch_age_seconds":92217,"freshness":"FRESH","line1":"1 68636U 26075A   26263.16490588  .00000059  00000+0  73340-4 0  9993","line2":"2 68636  88.9865 311.3209 0002047  83.7240 276.4144 13.51020891 22610","mean_motion":13.51020891,"eccentricity":0.0002047,"inclination_deg":88.9865,"raan_deg":311.3209,"arg_perigee_deg":83.724,"mean_anomaly_deg":276.4144,"bstar":7.334e-5,"rev_number":2261,"period_min":106.58606462659,"perigee_km":1066.9804911249,"apogee_km":1070.0291462855,"semimajor_km":7446.6418187052,"source":"CELESTRAK","updated_at":"2026-09-20T09:00:24.367355Z"}}}